Overview Statistics Trail Chart Weather Telemetry Raw packets
 

This is the latest recevied weather packets stored in our database for station/object KE8WMS. If no packets are shown the sender has not sent any weather packets the latest 10 day(s).

<< 70 71 72 73 74 75 76 >>
Time Temp. Humidity Pressure Rain* Wind** Luminosity Snow
1777347440 20° C 48% 1005.1 hPa 0 mm - 0 W/m² -
1777347139 20° C 47% 1005.2 hPa 0 mm - 0 W/m² -
1777346836 20° C 46% 1005 hPa 0 mm - 0 W/m² -
1777346533 20° C 47% 1004.9 hPa 0 mm - 0 W/m² -
1777346230 20° C 47% 1005.1 hPa 0 mm - 0 W/m² -
1777345927 20° C 48% 1005.3 hPa 0 mm - 0 W/m² -
1777345624 20° C 47% 1005.4 hPa 0 mm - 0 W/m² -
1777345320 20° C 46% 1005.4 hPa 0 mm - 0 W/m² -
1777345017 20° C 46% 1005.5 hPa 0 mm - 0 W/m² -
1777344713 20° C 47% 1005.6 hPa 0 mm - 0 W/m² -
1777344409 20° C 47% 1005.8 hPa 0 mm - 0 W/m² -
1777344108 20° C 47% 1006 hPa 0 mm - 0 W/m² -
1777343804 20° C 47% 1006.2 hPa 0 mm - 0 W/m² -
1777343502 20° C 45% 1006.3 hPa 0 mm - 0 W/m² -
1777343200 20° C 45% 1006.3 hPa 0 mm - 0 W/m² -
1777342897 20° C 44% 1006.6 hPa 0 mm - 0 W/m² -
1777342593 20° C 47% 1006.7 hPa 0 mm - 0 W/m² -
1777342290 20.56° C 46% 1006.8 hPa 0 mm - 0 W/m² -
1777341987 20.56° C 43% 1006.9 hPa 0 mm - 0 W/m² -
1777341684 20.56° C 44% 1006.8 hPa 0 mm - 0 W/m² -
1777341380 20.56° C 47% 1006.5 hPa 0 mm - 0 W/m² -
1777341076 20.56° C 47% 1006.7 hPa 0 mm - 0 W/m² -
1777340773 20.56° C 45% 1006.6 hPa 0 mm - 0 W/m² -
1777340472 20.56° C 47% 1006.8 hPa 0 mm - 0 W/m² -
1777340169 20.56° C 44% 1006.7 hPa 0 mm - 0 W/m² -

* Rain latest hour (hover to see other rain measurements)
** Current wind speed in m/s (hover to see current wind gust speed)